FALCON 9 DEB (54210 NORAD) Tracking and Keplerian Element Data

This shows tracking and keplerian element data for the satellite.

Feedback or suggestion? Click here.




ElementValue
Catalog54210
NameFALCON 9 DEB
Epoch Orbit108
Epoch Day307.71439051
Epoch Year2022
RAAN110.8927
Inclination53.2049
Eccentricity0.0062572
Argument of Perigee180.5395
Mean Anonmoly179.5582
Mean Motion16.05345744
Decay Rate0.00973867
L11 54210U 22141BF 22307.71439051 .00973867 11379-4 10331-2 0 9991
L22 54210 53.2049 110.8927 0062572 180.5395 179.5582 16.05345744 1083



Live tracking and technical data element details for FALCON 9 DEB (NORAD 54210). FALCON 9 DEB can be tracked NOW for your location showing map with azimuth and elevation plus other details from your city location.







IsCatalogInMostPopularTable: catalog: 54210, numindb: 9
Update: records affected: 1



GetName: 54210 FALCON 9 DEB

Hit Count: updated at: Sun, 04 Dec 2022 22:26:32 GMT